Meteo Giornale » Osservazioni meteo Italia » Verona-Villafranca

ore: 01:50 - Osservazioni Meteo Verona-Villafranca
Lat. 45° 23' N Lon. 10° 52' E Alt. 67 metri s.l.m.

poco_nuvoloso Europe/Rome

16 °C

Poco Nuvoloso

Temp. 24 Ore

12 °C

22 °C

Nord/Nord-Est

9.3 Km/h

Dew point 15 °C

Umidità 93 %

Visibilità  10 Km

Il sole sorge alle ore 07:39

Il sole tramonta alle ore 18:22

Data e Ora Cielo e Fenomeni T °C DP °C Um. % Pres. hPa Vis. km Vento km/h
Oggi h: 01:50 poco_nuvoloso Poco Nuvoloso 16 15 93 1019 10 N/NE 9.3
Oggi h: 01:20 poco_nuvoloso Poco Nuvoloso 16 15 93 1019 10 N 3.7
Oggi h: 00:50 sereno Sereno 16 14 87 1019 10 N/NE 7.4
Ieri h: 23:50 molto_nuvoloso Molto Nuvoloso 17 14 82 1019 10 NE 9.3
Ieri h: 23:20 molto_nuvoloso Molto Nuvoloso 18 14 77 1019 10 E/NE 13
Ieri h: 22:50 molto_nuvoloso Molto Nuvoloso 18 14 77 1019 10 E 11.1
Ieri h: 22:20 nuvoloso Nuvoloso 18 14 77 1019 10 E 13
Ieri h: 21:50 nuvoloso Nuvoloso 19 13 68 1019 10 E 14.8
Ieri h: 21:20 nuvoloso Nuvoloso 19 14 72 1018 10 E 13
Ieri h: 20:50 nuvoloso Nuvoloso 19 13 68 1018 10 E 13
Ieri h: 20:20 nuvoloso Nuvoloso 19 14 72 1018 10 E 11.1
Ieri h: 19:50 molto_nuvoloso Molto Nuvoloso 20 13 64 1018 10 E/NE 13
Ieri h: 19:20 molto_nuvoloso Molto Nuvoloso 20 13 64 1017 10 E/NE 14.8
Ieri h: 18:50 molto_nuvoloso Molto Nuvoloso 20 14 68 1017 10 E/NE 14.8
Ieri h: 18:20 molto_nuvoloso Molto Nuvoloso 20 15 72 1017 10 E 11.1
Ieri h: 17:50 molto_nuvoloso Molto Nuvoloso 21 15 68 1017 10 E/NE 13
Ieri h: 17:20 molto_nuvoloso Molto Nuvoloso 21 14 64 1017 10 E/NE 14.8
Ieri h: 16:50 nuvoloso Nuvoloso 21 14 64 1017 10 E/NE 14.8
Ieri h: 16:20 molto_nuvoloso Molto Nuvoloso 21 13 60 1017 10 E 14.8
Ieri h: 15:50 molto_nuvoloso Molto Nuvoloso 21 15 68 1017 10 E 11.1
Ieri h: 15:20 molto_nuvoloso Molto Nuvoloso 21 15 68 1018 10 E 13
Ieri h: 14:50 nuvoloso Nuvoloso 22 15 64 1017 10 E 14.8
Ieri h: 14:20 nuvoloso Nuvoloso 22 15 64 1017 10 E 14.8
Ieri h: 13:50 poco_nuvoloso Poco Nuvoloso 22 15 64 1017 10 E 13
Ieri h: 13:20 sereno Sereno 22 14 60 1018 10 E 18.5
Ieri h: 12:50 sereno Sereno 22 14 60 1018 10 E 14.8
Ieri h: 12:20 sereno Sereno 22 14 60 1018 10 E 14.8
Ieri h: 11:50 poco_nuvoloso Poco Nuvoloso 21 15 68 1018 10 E 13
Ieri h: 11:20 poco_nuvoloso Poco Nuvoloso 21 15 68 1018 10 E/NE 13
Ieri h: 10:50 sereno Sereno 20 15 72 1018 10 E 9.3
Ieri h: 10:20 sereno Sereno 19 15 77 1018 10 E/NE 11.1
Ieri h: 09:50 sereno Sereno 17 14 82 1018 10 NE 7.4
Ieri h: 09:20 sereno Sereno 16 15 93 1018 10 N 9.3
Ieri h: 08:50 sereno Sereno 14 14 100 1018 10 N 9.3
Ieri h: 08:20 sereno Sereno 13 12 93 1017 10 N 3.7
Ieri h: 07:50 sereno Sereno 12 12 100 1017 10 N 3.7
Ieri h: 07:20 sereno Sereno 12 11 93 1017 10 N 3.7
Ieri h: 06:50 nuvoloso Nuvoloso 12 12 100 1017 10 N 3.7
Ieri h: 06:20 nuvoloso Nuvoloso 12 11 93 1017 10 N 5.5
Ieri h: 05:50 nuvoloso Nuvoloso 13 13 100 1017 10 N 3.7
Ieri h: 05:20 nuvoloso Nuvoloso 13 12 93 1016 10 N 3.7
Ieri h: 04:50 nuvoloso Nuvoloso 13 12 93 1016 10 N 3.7
Ieri h: 04:20 poco_nuvoloso Poco Nuvoloso 13 12 93 1016 10 N 5.5
Ieri h: 03:50 poco_nuvoloso Poco Nuvoloso 14 12 87 1016 10 N 3.7
Ieri h: 03:20 nuvoloso Nuvoloso 15 13 87 1016 10 N 3.7
Ieri h: 02:50 nuvoloso Nuvoloso 16 14 87 1016 10 N 5.5